Regional Weather Roundup
Issued by NWS

Home | Current Version | Previous Version | Text Only | Print | Product List | Glossary Off
Versions: 1 2 3 4 5 6 7 8 9 10 11 12 13 14 15 16 17 18 19 20 21 22 23 24 25 26 27 28 29 30 31 32 33 34 35 36 37 38 39 40 41 42 43 44 45 46 47 48 49 50

442
ASUS43 KBIS 291710
RWRND

NORTH DAKOTA REGIONAL WEATHER ROUNDUP
NATIONAL WEATHER SERVICE BISMARCK ND
1200 PM CDT THU SEP 29 2016

NOTE: "FAIR" INDICATES FEW OR NO CLOUDS BELOW 12,000 FEET WITH NO
SIGNIFICANT WEATHER AND/OR OBSTRUCTIONS TO VISIBILITY.


NDZ001>003-009>011-017-291800-
NORTHWEST NORTH DAKOTA

CITY           SKY/WX    TMP DP  RH WIND       PRES   REMARKS
WILLISTON      SUNNY     65  44  46 SE14G20   30.24F
MINOT          SUNNY     65  47  52 SE16      30.33F
MINOT AFB      SUNNY     64  47  52 S20       30.32F
$$

NDZ018>021-031>035-040>046-291800-
SOUTHWEST NORTH DAKOTA

CITY           SKY/WX    TMP DP  RH WIND       PRES   REMARKS
BISMARCK       SUNNY     62  47  57 S14       30.38F
DICKINSON      SUNNY     63  45  51 S20       30.26F
GARRISON         N/A     62  48  60 S14G21    30.33F
HETTINGER ARPT SUNNY     65  45  48 SE18      30.30F
$$

NDZ004>008-012>016-024-026-027-054-291800-
NORTHEAST NORTH DAKOTA

CITY           SKY/WX    TMP DP  RH WIND       PRES   REMARKS
GRAND FORKS    PTSUNNY   61  46  57 S12       30.46F
GRND FRKS AFB  MOSUNNY   62  47  56 S13       30.46F
DEVILS LAKE    SUNNY     60  49  66 S15       30.43F
$$

NDZ022-023-025-028>030-036>039-047>053-291800-
SOUTHEAST NORTH DAKOTA

CITY           SKY/WX    TMP DP  RH WIND       PRES   REMARKS
FARGO          MOSUNNY   62  45  53 S8        30.47F
JAMESTOWN      SUNNY     60  49  66 S12       30.44F
$$





USA.gov is the U.S. government's official web portal to all federal, state and local government web resources and services.